Time,TemperatureF,DewpointF,PressureIn,WindDirection,WindDirectionDegrees,WindSpeedMPH,WindSpeedGustMPH,Humidity,HourlyPrecipIn,Conditions,Clouds,dailyrainin,SolarRadiationWatts/m^2,SoftwareType,DateUTC
2013-04-01 00:12:00,62.9,47.0,29.77,WSW,247,2.0,3.0,56,0.00,,,0.00,0,Wunderground v.1.15,2013-03-31 21:12:00,
2013-04-01 00:22:00,60.3,47.6,29.77,West,279,2.0,2.0,63,0.00,,,0.00,0,Wunderground v.1.15,2013-03-31 21:22:00,
2013-04-01 00:32:00,59.5,47.7,29.77,WSW,250,2.0,2.0,65,0.00,,,0.00,0,Wunderground v.1.15,2013-03-31 21:32:00,
2013-04-01 00:42:00,59.4,48.0,29.77,SW,229,2.0,2.0,66,0.00,,,0.00,0,Wunderground v.1.15,2013-03-31 21:42:00,
2013-04-01 00:52:00,60.1,47.9,29.76,SW,232,2.0,2.0,64,0.00,,,0.00,0,Wunderground v.1.15,2013-03-31 21:52:00,
2013-04-01 01:02:00,60.8,48.1,29.76,SW,227,3.0,3.0,63,0.00,,,0.00,0,Wunderground v.1.15,2013-03-31 22:02:00,
2013-04-01 01:12:00,61.1,48.0,29.76,South,177,1.0,3.0,62,0.00,,,0.00,0,Wunderground v.1.15,2013-03-31 22:12:00,
2013-04-01 01:32:00,61.8,48.2,29.76,SW,223,3.0,3.0,61,0.00,,,0.00,0,Wunderground v.1.15,2013-03-31 22:32:00,
2013-04-01 01:42:00,61.9,48.3,29.76,SSW,212,4.0,4.0,61,0.00,,,0.00,0,Wunderground v.1.15,2013-03-31 22:42:00,
2013-04-01 01:52:00,62.0,48.4,29.76,SSW,205,4.0,7.0,61,0.00,,,0.00,0,Wunderground v.1.15,2013-03-31 22:52:00,
2013-04-01 02:02:00,62.2,48.6,29.76,SW,217,4.0,4.0,61,0.00,,,0.00,0,Wunderground v.1.15,2013-03-31 23:02:00,
2013-04-01 02:12:00,62.2,48.6,29.76,SW,217,3.0,3.0,61,0.00,,,0.00,0,Wunderground v.1.15,2013-03-31 23:12:00,
2013-04-01 03:02:00,61.4,48.3,29.76,SW,215,3.0,4.0,62,0.00,,,0.00,0,Wunderground v.1.15,2013-04-01 00:02:00,
2013-04-01 03:12:00,61.2,48.1,29.75,SSW,213,3.0,3.0,62,0.00,,,0.00,0,Wunderground v.1.15,2013-04-01 00:12:00,
2013-04-01 03:22:00,61.2,48.5,29.75,SSW,208,2.0,2.0,63,0.00,,,0.00,0,Wunderground v.1.15,2013-04-01 00:22:00,
2013-04-01 03:32:00,61.3,48.2,29.75,South,184,2.0,2.0,62,0.00,,,0.00,0,Wunderground v.1.15,2013-04-01 00:32:00,
2013-04-01 03:42:00,61.4,48.7,29.76,SSW,193,1.0,1.0,63,0.00,,,0.00,0,Wunderground v.1.15,2013-04-01 00:42:00,
2013-04-01 04:02:00,61.6,48.4,29.76,South,182,1.0,2.0,62,0.00,,,0.00,0,Wunderground v.1.15,2013-04-01 01:02:00,
2013-04-01 04:52:00,62.7,48.2,29.76,SSW,213,2.0,4.0,59,0.00,,,0.00,0,Wunderground v.1.15,2013-04-01 01:52:00,
2013-04-01 05:12:00,63.0,48.0,29.76,SSW,198,2.0,2.0,58,0.00,,,0.00,0,Wunderground v.1.15,2013-04-01 02:12:00,
2013-04-01 05:22:00,62.9,47.9,29.77,SW,219,1.0,1.0,58,0.00,,,0.00,0,Wunderground v.1.15,2013-04-01 02:22:00,
2013-04-01 05:32:00,62.7,47.7,29.76,SW,225,1.0,1.0,58,0.00,,,0.00,0,Wunderground v.1.15,2013-04-01 02:32:00,
2013-04-01 05:52:00,62.2,47.7,29.76,South,189,2.0,2.0,59,0.00,,,0.00,0,Wunderground v.1.15,2013-04-01 02:52:00,
2013-04-01 06:02:00,61.8,48.2,29.76,South,188,0.0,0.0,61,0.00,,,0.00,0,Wunderground v.1.15,2013-04-01 03:02:00,
2013-04-01 06:12:00,61.5,47.9,29.77,West,261,2.0,2.0,61,0.00,,,0.00,0,Wunderground v.1.15,2013-04-01 03:12:00,
2013-04-01 06:42:00,61.9,47.9,29.77,SW,219,2.0,2.0,60,0.00,,,0.00,0,Wunderground v.1.15,2013-04-01 03:42:00,
2013-04-01 07:02:00,61.9,47.9,29.77,SW,215,2.0,4.0,60,0.00,,,0.00,0,Wunderground v.1.15,2013-04-01 04:02:00,
2013-04-01 07:12:00,61.9,47.9,29.77,SW,223,2.0,2.0,60,0.00,,,0.00,7,Wunderground v.1.15,2013-04-01 04:12:00,
2013-04-01 07:22:00,62.1,48.0,29.78,SSW,208,2.0,3.0,60,0.00,,,0.00,11,Wunderground v.1.15,2013-04-01 04:22:00,
2013-04-01 07:32:00,62.2,49.9,29.78,SW,227,2.0,2.0,64,0.00,,,0.00,21,Wunderground v.1.15,2013-04-01 04:32:00,
2013-04-01 07:42:00,62.2,48.1,29.78,WSW,252,2.0,2.0,60,0.00,,,0.00,40,Wunderground v.1.15,2013-04-01 04:42:00,
2013-04-01 07:52:00,62.2,48.1,29.78,SW,227,2.0,2.0,60,0.00,,,0.00,62,Wunderground v.1.15,2013-04-01 04:52:00,
2013-04-01 08:02:00,62.6,48.5,29.78,SW,215,2.0,2.0,60,0.00,,,0.00,69,Wunderground v.1.15,2013-04-01 05:02:00,
2013-04-01 08:12:00,62.6,48.5,29.79,South,184,2.0,2.0,60,0.00,,,0.00,79,Wunderground v.1.15,2013-04-01 05:12:00,
2013-04-01 08:22:00,62.4,48.8,29.79,SSW,203,2.0,2.0,61,0.00,,,0.00,86,Wunderground v.1.15,2013-04-01 05:22:00,
2013-04-01 08:32:00,62.3,48.7,29.79,SSW,192,1.0,1.0,61,0.00,,,0.00,95,Wunderground v.1.15,2013-04-01 05:32:00,
2013-04-01 08:52:00,62.2,48.1,29.78,SW,216,1.0,1.0,60,0.00,,,0.00,130,Wunderground v.1.15,2013-04-01 05:52:00,
2013-04-01 09:02:00,62.4,48.3,29.78,SSW,198,1.0,1.0,60,0.00,,,0.00,171,Wunderground v.1.15,2013-04-01 06:02:00,
2013-04-01 09:12:00,62.7,48.6,29.79,South,171,1.0,4.0,60,0.00,,,0.00,207,Wunderground v.1.15,2013-04-01 06:12:00,
2013-04-01 09:22:00,62.8,48.7,29.79,South,184,3.0,3.0,60,0.00,,,0.00,241,Wunderground v.1.15,2013-04-01 06:22:00,
2013-04-01 09:42:00,63.5,49.4,29.79,South,182,1.0,1.0,60,0.00,,,0.00,195,Wunderground v.1.15,2013-04-01 06:42:00,
2013-04-01 09:52:00,63.9,49.3,29.79,South,184,1.0,2.0,59,0.00,,,0.00,188,Wunderground v.1.15,2013-04-01 06:52:00,
2013-04-01 10:12:00,63.8,49.2,29.78,SSW,195,2.0,2.0,59,0.00,,,0.00,151,Wunderground v.1.15,2013-04-01 07:12:00,
2013-04-01 10:32:00,64.3,48.7,29.79,SW,215,2.0,5.0,57,0.00,,,0.00,156,Wunderground v.1.15,2013-04-01 07:32:00,
2013-04-01 10:42:00,64.6,49.0,29.78,South,170,3.0,3.0,57,0.00,,,0.00,207,Wunderground v.1.15,2013-04-01 07:42:00,
2013-04-01 10:52:00,65.0,49.4,29.78,West,275,2.0,2.0,57,0.00,,,0.00,179,Wunderground v.1.15,2013-04-01 07:52:00,
2013-04-01 11:02:00,65.1,49.0,29.78,SW,221,3.0,3.0,56,0.00,,,0.00,192,Wunderground v.1.15,2013-04-01 08:02:00,
2013-04-01 11:12:00,65.5,48.9,29.78,SW,214,2.0,7.0,55,0.00,,,0.00,253,Wunderground v.1.15,2013-04-01 08:12:00,
2013-04-01 11:22:00,65.6,49.0,29.78,WSW,257,3.0,3.0,55,0.00,,,0.00,190,Wunderground v.1.15,2013-04-01 08:22:00,
2013-04-01 11:32:00,65.3,48.7,29.78,WSW,243,3.0,3.0,55,0.00,,,0.00,169,Wunderground v.1.15,2013-04-01 08:32:00,
2013-04-01 11:42:00,64.6,49.0,29.78,SSW,203,5.0,5.0,57,0.00,,,0.00,185,Wunderground v.1.15,2013-04-01 08:42:00,
2013-04-01 11:52:00,64.8,49.2,29.78,WSW,250,4.0,4.0,57,0.00,,,0.00,248,Wunderground v.1.15,2013-04-01 08:52:00,
2013-04-01 12:02:00,64.9,48.8,29.78,South,178,3.0,3.0,56,0.00,,,0.00,315,Wunderground v.1.15,2013-04-01 09:02:00,
2013-04-01 12:32:00,65.4,48.3,29.78,WSW,258,4.0,4.0,54,0.00,,,0.00,204,Wunderground v.1.15,2013-04-01 09:32:00,
2013-04-01 12:42:00,65.3,48.2,29.80,SSW,211,7.0,7.0,54,0.00,,,0.00,127,Wunderground v.1.15,2013-04-01 09:42:00,
2013-04-01 12:52:00,65.4,48.8,29.80,SSW,205,6.0,6.0,55,0.00,,,0.00,213,Wunderground v.1.15,2013-04-01 09:52:00,
2013-04-01 13:02:00,64.8,48.7,29.79,SW,217,3.0,5.0,56,0.00,,,0.00,178,Wunderground v.1.15,2013-04-01 10:02:00,
2013-04-01 13:12:00,62.3,48.2,29.78,South,176,4.0,5.0,60,0.00,,,0.00,123,Wunderground v.1.15,2013-04-01 10:12:00,
2013-04-01 13:22:00,62.2,48.1,29.79,West,280,5.0,5.0,60,0.00,,,0.00,116,Wunderground v.1.15,2013-04-01 10:22:00,
2013-04-01 13:42:00,63.3,46.9,29.78,SW,234,2.0,3.0,55,0.00,,,0.00,350,Wunderground v.1.15,2013-04-01 10:42:00,
2013-04-01 13:52:00,64.5,47.0,29.77,WSW,245,2.0,2.0,53,0.00,,,0.00,622,Wunderground v.1.15,2013-04-01 10:52:00,
2013-04-01 14:02:00,66.6,46.8,29.77,South,183,1.0,4.0,49,0.00,,,0.00,849,Wunderground v.1.15,2013-04-01 11:02:00,
2013-04-01 14:12:00,67.7,45.6,29.77,SSW,203,4.0,7.0,45,0.00,,,0.00,455,Wunderground v.1.15,2013-04-01 11:12:00,
2013-04-01 14:22:00,66.6,45.7,29.77,South,182,5.0,5.0,47,0.00,,,0.00,343,Wunderground v.1.15,2013-04-01 11:22:00,
2013-04-01 14:32:00,66.7,45.3,29.77,South,175,2.0,3.0,46,0.00,,,0.00,320,Wunderground v.1.15,2013-04-01 11:32:00,
2013-04-01 14:52:00,67.5,44.2,29.76,SSW,193,3.0,3.0,43,0.00,,,0.00,357,Wunderground v.1.15,2013-04-01 11:52:00,
2013-04-01 15:02:00,67.4,44.1,29.76,South,176,3.0,3.0,43,0.00,,,0.00,248,Wunderground v.1.15,2013-04-01 12:02:00,
2013-04-01 15:32:00,67.4,44.1,29.76,South,178,5.0,5.0,43,0.00,,,0.00,413,Wunderground v.1.15,2013-04-01 12:32:00,
2013-04-01 15:42:00,68.2,43.6,29.75,South,175,3.0,3.0,41,0.00,,,0.00,350,Wunderground v.1.15,2013-04-01 12:42:00,
2013-04-01 15:52:00,68.4,44.4,29.75,SSW,207,4.0,4.0,42,0.00,,,0.00,371,Wunderground v.1.15,2013-04-01 12:52:00,
2013-04-01 16:12:00,67.3,45.2,29.75,South,182,5.0,8.0,45,0.00,,,0.00,230,Wunderground v.1.15,2013-04-01 13:12:00,
2013-04-01 16:22:00,66.1,46.4,29.75,South,178,7.0,19.0,49,0.00,,,0.00,116,Wunderground v.1.15,2013-04-01 13:22:00,
2013-04-01 16:32:00,65.1,47.5,29.75,South,190,10.0,10.0,53,0.00,,,0.00,47,Wunderground v.1.15,2013-04-01 13:32:00,
2013-04-01 16:52:00,64.3,48.3,29.75,SE,144,7.0,7.0,56,0.00,,,0.00,93,Wunderground v.1.15,2013-04-01 13:52:00,
2013-04-01 17:02:00,64.4,47.9,29.75,South,176,8.0,8.0,55,0.00,,,0.00,97,Wunderground v.1.15,2013-04-01 14:02:00,
2013-04-01 17:12:00,64.5,47.0,29.74,South,177,7.0,11.0,53,0.00,,,0.00,90,Wunderground v.1.15,2013-04-01 14:12:00,
2013-04-01 17:22:00,64.5,47.0,29.74,SE,124,7.0,7.0,53,0.00,,,0.00,74,Wunderground v.1.15,2013-04-01 14:22:00,
2013-04-01 17:42:00,64.2,47.2,29.73,ESE,123,4.0,4.0,54,0.00,,,0.00,72,Wunderground v.1.15,2013-04-01 14:42:00,
2013-04-01 18:02:00,64.0,47.5,29.75,SSW,210,4.0,4.0,55,0.00,,,0.00,49,Wunderground v.1.15,2013-04-01 15:02:00,
2013-04-01 18:22:00,63.9,46.9,29.75,SSW,209,2.0,2.0,54,0.00,,,0.00,35,Wunderground v.1.15,2013-04-01 15:22:00,
2013-04-01 18:32:00,63.8,47.3,29.76,SSW,207,2.0,2.0,55,0.00,,,0.00,21,Wunderground v.1.15,2013-04-01 15:32:00,
2013-04-01 18:42:00,63.6,46.6,29.77,SW,225,2.0,2.0,54,0.00,,,0.00,12,Wunderground v.1.15,2013-04-01 15:42:00,
2013-04-01 18:52:00,63.6,46.6,29.77,SSW,194,3.0,3.0,54,0.00,,,0.00,7,Wunderground v.1.15,2013-04-01 15:52:00,
2013-04-01 19:02:00,62.9,47.0,29.77,SW,229,4.0,7.0,56,0.00,,,0.00,0,Wunderground v.1.15,2013-04-01 16:02:00,
2013-04-01 19:22:00,60.6,48.4,29.77,South,183,8.0,11.0,64,0.00,,,0.00,5,Wunderground v.1.15,2013-04-01 16:22:00,
2013-04-01 19:32:00,59.3,48.3,29.75,SSE,160,11.0,11.0,67,0.00,,,0.00,0,Wunderground v.1.15,2013-04-01 16:32:00,
2013-04-01 19:42:00,59.0,48.1,29.74,NNE,17,7.0,7.0,67,0.00,,,0.00,0,Wunderground v.1.15,2013-04-01 16:42:00,
2013-04-01 19:52:00,59.2,48.2,29.74,WSW,244,2.0,4.0,67,0.00,,,0.00,0,Wunderground v.1.15,2013-04-01 16:52:00,
2013-04-01 20:12:00,60.9,47.4,29.76,WSW,240,5.0,7.0,61,0.00,,,0.00,0,Wunderground v.1.15,2013-04-01 17:12:00,
2013-04-01 20:22:00,60.4,47.3,29.76,West,260,6.0,6.0,62,0.00,,,0.00,0,Wunderground v.1.15,2013-04-01 17:22:00,
2013-04-01 20:42:00,61.0,47.0,29.76,WNW,288,4.0,5.0,60,0.00,,,0.00,0,Wunderground v.1.15,2013-04-01 17:42:00,
2013-04-01 20:52:00,61.3,46.8,29.76,SSW,211,4.0,4.0,59,0.00,,,0.00,0,Wunderground v.1.15,2013-04-01 17:52:00,
2013-04-01 21:12:00,60.2,46.7,29.78,South,176,1.0,3.0,61,0.00,,,0.00,0,Wunderground v.1.15,2013-04-01 18:12:00,
2013-04-01 21:42:00,58.7,45.7,29.78,SSW,210,2.0,5.0,62,0.00,,,0.00,0,Wunderground v.1.15,2013-04-01 18:42:00,
2013-04-01 21:52:00,59.4,45.1,29.78,SSW,212,3.0,5.0,59,0.00,,,0.00,0,Wunderground v.1.15,2013-04-01 18:52:00,
2013-04-01 22:12:00,58.9,45.9,29.79,SSW,201,3.0,3.0,62,0.00,,,0.00,0,Wunderground v.1.15,2013-04-01 19:12:00,
2013-04-01 22:22:00,58.4,46.3,29.79,SW,217,2.0,2.0,64,0.00,,,0.00,0,Wunderground v.1.15,2013-04-01 19:22:00,
2013-04-01 22:32:00,58.8,46.6,29.79,SW,235,3.0,6.0,64,0.00,,,0.00,0,Wunderground v.1.15,2013-04-01 19:32:00,
2013-04-01 22:52:00,59.2,46.6,29.80,West,259,4.0,5.0,63,0.00,,,0.00,0,Wunderground v.1.15,2013-04-01 19:52:00,
2013-04-01 23:02:00,59.8,46.7,29.80,SW,223,6.0,6.0,62,0.00,,,0.00,0,Wunderground v.1.15,2013-04-01 20:02:00,
2013-04-01 23:12:00,59.8,46.7,29.80,SSW,213,5.0,7.0,62,0.00,,,0.00,0,Wunderground v.1.15,2013-04-01 20:12:00,
2013-04-01 23:22:00,60.0,46.5,29.80,NNW,329,6.0,6.0,61,0.00,,,0.00,0,Wunderground v.1.15,2013-04-01 20:22:00,
2013-04-01 23:42:00,60.1,46.6,29.81,SW,219,5.0,5.0,61,0.00,,,0.00,0,Wunderground v.1.15,2013-04-01 20:42:00,
2013-04-01 23:52:00,59.9,46.4,29.82,SW,226,3.0,4.0,61,0.00,,,0.00,0,Wunderground v.1.15,2013-04-01 20:52:00,